{"data":{"norad_id":68788,"epoch":"2026-09-19T22:36:46.941408Z","epoch_age_seconds":88337,"freshness":"FRESH","line1":"1 68788U 26086Y   26262.94220997  .00010776  00000+0  33552-3 0  9990","line2":"2 68788  97.2851 298.4433 0001136 102.7374 257.3996 15.33456867 23609","mean_motion":15.33456867,"eccentricity":0.0001136,"inclination_deg":97.2851,"raan_deg":298.4433,"arg_perigee_deg":102.7374,"mean_anomaly_deg":257.3996,"bstar":0.00033552,"rev_number":2360,"period_min":93.905477942602,"perigee_km":464.7304288061,"apogee_km":466.28530491985,"semimajor_km":6843.644866863,"source":"CELESTRAK","updated_at":"2026-09-20T09:00:44.003986Z"}}